Regional Weather Roundup
Issued by NWS Bismarck, ND

Home | Current Version | Previous Version | Text Only | Print | Product List | Glossary On
Versions: 1 2 3 4 5 6 7 8 9 10 11 12 13 14 15 16 17 18 19 20 21 22 23 24 25 26 27 28 29 30 31 32 33 34 35 36 37 38 39 40 41 42 43 44 45 46 47 48 49 50
000
ASUS43 KBIS 272010
RWRBIS

NWR BROADCAST TEXT
NATIONAL WEATHER SERVICE BISMARCK ND
300 PM CDT TUE JUN 27 2017

NOTE: "FAIR" INDICATES FEW OR NO CLOUDS BELOW 12,000 FEET WITH NO
SIGNIFICANT WEATHER AND/OR OBSTRUCTIONS TO VISIBILITY.


CITY           SKY/WX    TMP DP  RH WIND       PRES   REMARKS
WILLISTON      CLOUDY    86  48  26 VRB3      29.55S
MINOT          MOSUNNY   84  55  36 S17       29.56S
MINOT AFB      MOSUNNY   83  54  37 S18       29.55S
BISMARCK       CLOUDY    84  58  40 S20G28    29.59F
DICKINSON      SUNNY     86  49  27 S15G22    29.56F
GARRISON         N/A     81  56  42 S17G25    29.56F
HETTINGER ARPT CLOUDY    91  52  26 SW10G22   29.58F
JAMESTOWN      MOSUNNY   79  46  31 S25G33    29.69F
HAZEN          FAIR      84  55  37 S20       29.58F
LINTON           N/A    N/A N/A N/A S23G33    29.65S
MANDAN         FAIR      82  57  42 S23       29.60F
STANLEY        FAIR      82  52  34 S14G22    29.60R
TIOGA          FAIR      81  52  36 SW12G18   29.58F
WATFORD CITY   FAIR      86  52  30 CALM      29.54F
$$

CITY           SKY/WX    TMP DP  RH WIND       PRES   REMARKS
GRAND FORKS    MOSUNNY   81  47  30 S24G33    29.71F
GRAND FORKS AF SUNNY     79  45  29 S26       29.71F
DEVILS LAKE    SUNNY     77  51  40 S22G28    29.67F
FARGO          PTSUNNY   77  44  30 S25G36    29.75F
CAVALIER       FAIR      81  46  30 S22G30    29.68F
GRAFTON        FAIR      81  46  30 S21G30    29.71F
GWINNER        CLOUDY    73  48  40 SE17      29.75F
LANGDON        FAIR      79  50  36 S26G33    29.68F
ROLLA            N/A     75  55  50 S24G33    29.62S
$$

CITY           SKY/WX    TMP DP  RH WIND       PRES   REMARKS
ABERDEEN       CLOUDY    81  49  32 S28G37    29.71F
MOBRIDGE       MOSUNNY   88  54  31 S26G32    29.61F
BUFFALO          N/A     90  46  21 W32G40    29.55F
RAPID CITY     CLOUDY    92  52  25 NE9       29.65F
GLASGOW        PTSUNNY   79  52  38 NW18      29.62R
SIDNEY         MOSUNNY   90  48  23 NW18      29.54R
WOLF POINT     CLOUDY    87  48  25 NW21G28   29.58S
GLENDIVE       PTSUNNY   89  49  25 NW17G25   29.60R
MILES CITY     CLOUDY    87  44  22 NW21G26   29.64S
BAKER          MOSUNNY   88  43  20 W16G24    29.62F
$$

CITY           SKY/WX    TMP DP  RH WIND       PRES   REMARKS
BILLINGS       MOSUNNY   83  45  26 NW18      29.75S
GREAT FALLS    PTSUNNY   76  44  32 SW7       29.77F
REGINA         PTSUNNY   75  61  60 W26G36    29.53R
ESTEVAN        CLOUDY    79  54  41 S5        29.53F
$$





USA.gov is the U.S. government's official web portal to all federal, state and local government web resources and services.